NDF38 LDRI-LHBP

Flight info

Callsign NDF38
Flight time 0h 46m
Altitude 35000
Route RUGOG1W RUGOG DCT ZAG DCT KOPRY DCT ULZAK ULZAK2T
Aircraft A320/M-SDE3FGHIRWY/LB1

Departure

Time 2026-05-03 22:44
Airport Rijeka Airport (LDRI)

Arrival

Time 2026-05-03 23:31
Airport Budapest Liszt Ferenc International Airport (LHBP)
Time Latitude Longitude Altitude Speed Heading
2026-05-03 22:24 45.21955 14.57098 288 ft 0 kts 103°
2026-05-03 22:38 45.21951 14.57106 266 ft 2 kts 123°
2026-05-03 22:39 45.21933 14.57110 288 ft 3 kts 186°
2026-05-03 22:39 45.21919 14.57078 290 ft 3 kts 244°
2026-05-03 22:39 45.21919 14.57077 290 ft 0 kts 244°
2026-05-03 22:40 45.21920 14.57063 288 ft 2 kts 279°
2026-05-03 22:40 45.21933 14.57043 288 ft 4 kts 321°
2026-05-03 22:40 45.21962 14.57015 288 ft 6 kts 327°
2026-05-03 22:41 45.22001 14.56965 288 ft 9 kts 304°
2026-05-03 22:41 45.22025 14.56873 288 ft 11 kts 285°
2026-05-03 22:41 45.22048 14.56748 287 ft 15 kts 284°
2026-05-03 22:41 45.22107 14.56619 288 ft 17 kts 322°
2026-05-03 22:42 45.22218 14.56504 282 ft 23 kts 323°
2026-05-03 22:42 45.22356 14.56360 278 ft 23 kts 323°
2026-05-03 22:42 45.22460 14.56253 272 ft 18 kts 323°
2026-05-03 22:42 45.22539 14.56201 271 ft 5 kts 351°
2026-05-03 22:43 45.22566 14.56178 271 ft 3 kts 256°
2026-05-03 22:43 45.22542 14.56173 271 ft 4 kts 162°
2026-05-03 22:43 45.22516 14.56191 272 ft 5 kts 148°
2026-05-03 22:43 45.22474 14.56234 272 ft 21 kts 143°
2026-05-03 22:44 45.22149 14.56575 287 ft 92 kts 143°
2026-05-03 22:44 45.21475 14.57271 287 ft 145 kts 143°
2026-05-03 22:44 45.20569 14.58223 551 ft 169 kts 143°
2026-05-03 22:44 45.19610 14.59236 1150 ft 176 kts 143°
2026-05-03 22:45 45.18616 14.60268 1674 ft 186 kts 143°
2026-05-03 22:45 45.17507 14.61412 1960 ft 210 kts 144°
2026-05-03 22:45 45.16259 14.62701 2348 ft 235 kts 144°
2026-05-03 22:45 45.14872 14.64136 2850 ft 257 kts 144°
2026-05-03 22:46 45.13401 14.65654 3694 ft 265 kts 144°
2026-05-03 22:46 45.11901 14.67202 4644 ft 269 kts 144°
2026-05-03 22:46 45.10379 14.68775 5598 ft 272 kts 144°
2026-05-03 22:46 45.08842 14.70368 6547 ft 276 kts 144°
2026-05-03 22:47 45.07287 14.71976 7414 ft 280 kts 144°
2026-05-03 22:47 45.05721 14.73660 8230 ft 286 kts 136°
2026-05-03 22:47 45.04593 14.75937 9032 ft 291 kts 111°
2026-05-03 22:47 45.04230 14.78739 9892 ft 293 kts 86°
2026-05-03 22:48 45.04718 14.81516 10682 ft 294 kts 62°
2026-05-03 22:48 45.05943 14.83814 11462 ft 295 kts 45°
2026-05-03 22:48 45.07384 14.85898 12266 ft 298 kts 45°
2026-05-03 22:48 45.08841 14.88003 13048 ft 301 kts 45°
2026-05-03 22:49 45.10309 14.90132 13826 ft 304 kts 45°
2026-05-03 22:49 45.11789 14.92287 14521 ft 307 kts 45°
2026-05-03 22:49 45.13266 14.94441 15192 ft 310 kts 45°
2026-05-03 22:49 45.14763 14.96661 15877 ft 313 kts 49°
2026-05-03 22:50 45.16019 14.99229 16351 ft 326 kts 60°
2026-05-03 22:50 45.17114 15.02152 16483 ft 346 kts 62°
2026-05-03 22:50 45.18259 15.05261 16617 ft 365 kts 62°
2026-05-03 22:50 45.19460 15.08539 16778 ft 381 kts 62°
2026-05-03 22:51 45.20694 15.11912 17261 ft 388 kts 62°
2026-05-03 22:51 45.21948 15.15326 17835 ft 392 kts 62°
2026-05-03 22:51 45.23216 15.18767 18417 ft 396 kts 61°
2026-05-03 22:51 45.24480 15.22196 18937 ft 399 kts 62°
2026-05-03 22:52 45.25769 15.25702 19480 ft 402 kts 62°
2026-05-03 22:52 45.27073 15.29232 20010 ft 405 kts 60°
2026-05-03 22:52 45.28650 15.32561 20526 ft 408 kts 50°
2026-05-03 22:52 45.30537 15.35586 21025 ft 411 kts 47°
2026-05-03 22:53 45.32458 15.38610 21514 ft 414 kts 47°
2026-05-03 22:53 45.34390 15.41660 21993 ft 417 kts 47°
2026-05-03 22:53 45.36332 15.44739 22451 ft 419 kts 47°
2026-05-03 22:53 45.38281 15.47843 22931 ft 422 kts 47°
2026-05-03 22:54 45.40218 15.50933 23388 ft 425 kts 47°
2026-05-03 22:54 45.42194 15.54085 23810 ft 428 kts 47°
2026-05-03 22:54 45.44180 15.57260 24186 ft 431 kts 47°
2026-05-03 22:54 45.46176 15.60453 24561 ft 433 kts 47°
2026-05-03 22:55 45.48183 15.63661 24942 ft 435 kts 47°
2026-05-03 22:55 45.50201 15.66887 25315 ft 437 kts 47°
2026-05-03 22:55 45.52230 15.70139 25704 ft 439 kts 47°
2026-05-03 22:55 45.54259 15.73398 26090 ft 441 kts 47°
2026-05-03 22:56 45.56276 15.76641 26477 ft 443 kts 46°
2026-05-03 22:56 45.58324 15.79939 26883 ft 445 kts 46°
2026-05-03 22:56 45.60379 15.83246 27280 ft 446 kts 46°
2026-05-03 22:56 45.62443 15.86570 27657 ft 448 kts 46°
2026-05-03 22:57 45.64517 15.89915 28028 ft 450 kts 46°
2026-05-03 22:57 45.66598 15.93277 28394 ft 453 kts 46°
2026-05-03 22:57 45.68681 15.96645 28893 ft 452 kts 46°
2026-05-03 22:57 45.70761 16.00012 29469 ft 450 kts 46°
2026-05-03 22:58 45.72824 16.03359 30013 ft 448 kts 45°
2026-05-03 22:58 45.74886 16.06706 30509 ft 447 kts 45°
2026-05-03 22:58 45.76908 16.09993 30964 ft 446 kts 45°
2026-05-03 22:58 45.78951 16.13323 31423 ft 445 kts 46°
2026-05-03 22:59 45.80989 16.16652 31881 ft 443 kts 46°
2026-05-03 22:59 45.83020 16.19971 32355 ft 442 kts 46°
2026-05-03 22:59 45.85045 16.23284 32833 ft 441 kts 46°
2026-05-03 22:59 45.87063 16.26590 33306 ft 440 kts 46°
2026-05-03 23:00 45.89074 16.29886 33787 ft 439 kts 46°
2026-05-03 23:00 45.91040 16.33231 34244 ft 438 kts 48°
2026-05-03 23:00 45.92300 16.35503 34515 ft 438 kts 49°
2026-05-03 23:00 45.94739 16.40127 34993 ft 439 kts 50°
2026-05-03 23:01 45.96551 16.43656 35107 ft 441 kts 50°
2026-05-03 23:01 46.00213 16.50775 35117 ft 443 kts 50°
2026-05-03 23:02 46.03296 16.56667 35108 ft 443 kts 50°
2026-05-03 23:02 46.07025 16.63735 35109 ft 443 kts 50°
2026-05-03 23:03 46.10752 16.70820 35113 ft 443 kts 50°
2026-05-03 23:03 46.15065 16.79066 35122 ft 444 kts 50°
2026-05-03 23:04 46.18151 16.84978 35123 ft 444 kts 50°
2026-05-03 23:04 46.21859 16.92091 35123 ft 443 kts 50°
2026-05-03 23:05 46.25539 16.99243 35121 ft 444 kts 51°
2026-05-03 23:05 46.29079 17.06552 35141 ft 444 kts 52°
2026-05-03 23:06 46.32558 17.13926 35142 ft 444 kts 52°
2026-05-03 23:06 46.36033 17.21229 35137 ft 443 kts 52°
2026-05-03 23:07 46.39554 17.28554 35143 ft 443 kts 52°
2026-05-03 23:07 46.43070 17.35892 35144 ft 443 kts 52°
2026-05-03 23:08 46.46568 17.43254 35147 ft 443 kts 52°
2026-05-03 23:08 46.50039 17.50566 35143 ft 443 kts 52°
2026-05-03 23:09 46.53532 17.57937 35139 ft 443 kts 52°
2026-05-03 23:09 46.57016 17.65315 35158 ft 442 kts 52°
2026-05-03 23:10 46.60488 17.72683 35156 ft 441 kts 52°
2026-05-03 23:10 46.63918 17.79988 35158 ft 440 kts 53°
2026-05-03 23:11 46.67364 17.87345 35154 ft 439 kts 53°
2026-05-03 23:11 46.70802 17.94696 35152 ft 439 kts 53°
2026-05-03 23:11 46.72522 17.98378 34986 ft 439 kts 53°
2026-05-03 23:12 46.74237 18.02056 34345 ft 441 kts 53°
2026-05-03 23:12 46.75948 18.05729 33398 ft 446 kts 53°
2026-05-03 23:12 46.77691 18.09478 32543 ft 447 kts 53°
2026-05-03 23:12 46.79442 18.13258 31573 ft 452 kts 53°
2026-05-03 23:13 46.81199 18.17065 30689 ft 454 kts 54°
2026-05-03 23:13 46.82972 18.20908 29582 ft 458 kts 54°
2026-05-03 23:13 46.84763 18.24778 28448 ft 461 kts 54°
2026-05-03 23:13 46.86563 18.28664 27359 ft 462 kts 54°
2026-05-03 23:14 46.88368 18.32570 26123 ft 466 kts 54°
2026-05-03 23:14 46.90183 18.36508 25072 ft 466 kts 55°
2026-05-03 23:14 46.91950 18.40355 24362 ft 459 kts 55°
2026-05-03 23:14 46.93717 18.44214 23507 ft 454 kts 55°
2026-05-03 23:15 46.95458 18.48029 22660 ft 447 kts 55°
2026-05-03 23:15 46.97167 18.51775 21878 ft 439 kts 55°
2026-05-03 23:15 46.99028 18.55258 21095 ft 432 kts 46°
2026-05-03 23:15 47.01246 18.58173 20307 ft 426 kts 37°
2026-05-03 23:16 47.03725 18.60501 19545 ft 421 kts 31°
2026-05-03 23:16 47.06226 18.62690 18775 ft 416 kts 31°
2026-05-03 23:16 47.08688 18.64867 17994 ft 411 kts 32°
2026-05-03 23:16 47.11085 18.67001 17288 ft 405 kts 32°
2026-05-03 23:17 47.13474 18.69138 16634 ft 400 kts 32°
2026-05-03 23:17 47.15832 18.71254 15985 ft 395 kts 32°
2026-05-03 23:17 47.18036 18.73617 15344 ft 390 kts 42°
2026-05-03 23:17 47.19889 18.76493 14715 ft 386 kts 52°
2026-05-03 23:18 47.21347 18.79730 14452 ft 371 kts 58°
2026-05-03 23:18 47.22676 18.82882 14332 ft 354 kts 58°
2026-05-03 23:18 47.23955 18.85883 14216 ft 339 kts 58°
2026-05-03 23:18 47.25172 18.88721 14102 ft 325 kts 58°
2026-05-03 23:19 47.26358 18.91486 13984 ft 314 kts 58°
2026-05-03 23:19 47.27503 18.94159 13821 ft 305 kts 58°
2026-05-03 23:19 47.28618 18.96773 13643 ft 297 kts 58°
2026-05-03 23:19 47.29713 18.99346 13569 ft 297 kts 58°
2026-05-03 23:20 47.30919 19.01806 13447 ft 296 kts 48°
2026-05-03 23:20 47.32420 19.03946 12842 ft 304 kts 43°
2026-05-03 23:20 47.33972 19.06027 12565 ft 299 kts 43°
2026-05-03 23:20 47.35508 19.08070 12269 ft 293 kts 42°
2026-05-03 23:21 47.37057 19.09863 12019 ft 277 kts 27°
2026-05-03 23:21 47.38885 19.10570 11567 ft 272 kts
2026-05-03 23:21 47.40692 19.09983 11055 ft 272 kts 334°
2026-05-03 23:21 47.42167 19.08254 10521 ft 273 kts 314°
2026-05-03 23:22 47.44713 19.04100 9382 ft 272 kts 313°
2026-05-03 23:22 47.45975 19.02032 8831 ft 270 kts 313°
2026-05-03 23:22 47.47233 18.99978 8299 ft 269 kts 313°
2026-05-03 23:23 47.48484 18.97935 7778 ft 267 kts 313°
2026-05-03 23:23 47.49723 18.95914 7266 ft 266 kts 312°
2026-05-03 23:23 47.50968 18.93887 6737 ft 265 kts 311°
2026-05-03 23:23 47.52301 18.92032 6188 ft 264 kts 328°
2026-05-03 23:24 47.54005 18.91122 5691 ft 261 kts 354°
2026-05-03 23:24 47.55761 18.91394 5401 ft 249 kts 20°
2026-05-03 23:24 47.57178 18.92601 5254 ft 230 kts 43°
2026-05-03 23:24 47.58323 18.94142 5134 ft 217 kts 44°
2026-05-03 23:25 47.59304 18.95779 4873 ft 213 kts 69°
2026-05-03 23:25 47.59434 18.97860 4681 ft 201 kts 109°
2026-05-03 23:25 47.58739 18.99547 4484 ft 188 kts 134°
2026-05-03 23:25 47.57866 19.00957 4230 ft 183 kts 135°
2026-05-03 23:26 47.57017 19.02330 3988 ft 178 kts 135°
2026-05-03 23:26 47.56195 19.03668 3760 ft 173 kts 135°
2026-05-03 23:26 47.55406 19.04954 3542 ft 169 kts 135°
2026-05-03 23:26 47.54628 19.06221 3317 ft 165 kts 136°
2026-05-03 23:27 47.53866 19.07462 3096 ft 161 kts 136°
2026-05-03 23:27 47.53122 19.08674 2884 ft 157 kts 136°
2026-05-03 23:27 47.52408 19.09836 2682 ft 148 kts 137°
2026-05-03 23:27 47.51739 19.10927 2514 ft 138 kts 137°
2026-05-03 23:28 47.51105 19.11957 2308 ft 134 kts 137°
2026-05-03 23:28 47.50476 19.12979 2127 ft 134 kts 137°
2026-05-03 23:28 47.49859 19.13980 1953 ft 133 kts 137°
2026-05-03 23:28 47.49238 19.14989 1769 ft 132 kts 137°
2026-05-03 23:29 47.48618 19.15995 1593 ft 132 kts 136°
2026-05-03 23:29 47.47998 19.17001 1417 ft 132 kts 136°
2026-05-03 23:29 47.47375 19.18013 1226 ft 134 kts 134°
2026-05-03 23:29 47.46747 19.19030 1044 ft 134 kts 133°
2026-05-03 23:30 47.46120 19.20047 852 ft 134 kts 132°
2026-05-03 23:30 47.45493 19.21063 684 ft 133 kts 131°
2026-05-03 23:30 47.44869 19.22073 509 ft 133 kts 131°
2026-05-03 23:30 47.44295 19.23021 452 ft 109 kts 130°
2026-05-03 23:31 47.43904 19.23658 456 ft 59 kts 133°
2026-05-03 23:31 47.43744 19.23912 455 ft 13 kts 133°
2026-05-03 23:31 47.43672 19.24028 453 ft 17 kts 132°
2026-05-03 23:31 47.43583 19.24172 452 ft 20 kts 132°
2026-05-03 23:32 47.43479 19.24330 451 ft 23 kts 133°
2026-05-03 23:32 47.43370 19.24507 452 ft 24 kts 132°
2026-05-03 23:32 47.43255 19.24691 455 ft 25 kts 134°
2026-05-03 23:32 47.43155 19.24846 456 ft 19 kts 133°
2026-05-03 23:33 47.43102 19.25023 457 ft 21 kts 83°
2026-05-03 23:33 47.43185 19.25180 457 ft 11 kts 41°
2026-05-03 23:33 47.43252 19.25269 457 ft 15 kts 42°
2026-05-03 23:33 47.43337 19.25381 456 ft 18 kts 42°
2026-05-03 23:34 47.43429 19.25503 457 ft 18 kts 42°
2026-05-03 23:34 47.43523 19.25628 457 ft 11 kts 42°
2026-05-03 23:34 47.43540 19.25725 456 ft 13 kts 130°
2026-05-03 23:34 47.43496 19.25795 457 ft 7 kts 125°
2026-05-03 23:35 47.43464 19.25871 456 ft 10 kts 136°
2026-05-03 23:35 47.43425 19.25937 457 ft 9 kts 114°
2026-05-03 23:35 47.43459 19.26023 457 ft 11 kts 54°
2026-05-03 23:35 47.43454 19.26065 457 ft 2 kts 118°
2026-05-03 23:36 47.43439 19.26090 457 ft 5 kts 133°
2026-05-03 23:36 47.43431 19.26102 457 ft 3 kts 132°
2026-05-03 23:36 47.43424 19.26114 457 ft 2 kts 131°
2026-05-03 23:36 47.43418 19.26123 456 ft 0 kts 131°
2026-05-03 23:37 47.43414 19.26130 457 ft 1 kts 132°
2026-05-03 23:37 47.43413 19.26132 457 ft 0 kts 132°